Weather WX

World > North America > United States > North Carolina

Cedar Point, North Carolina Regional Weather

Lat: 34.68N, Lon: 77.08W
Wx Zone: NCZ095
Feedback

Cedar Point, NC Regional Weather

Expires:201907181800;;260719
ASUS42 KMHX 181725
RWRMHX
WEATHER ROUNDUP FOR EASTERN NORTH CAROLINA
NATIONAL WEATHER SERVICE NEWPORT/MOREHEAD CITY NC
100 PM EDT THU JUL 18 2019

NOTE: "FAIR" INDICATES FEW OR NO CLOUDS BELOW 12,000 FEET
WITH NO SIGNIFICANT WEATHER AND/OR OBSTRUCTIONS TO VISIBILITY


NCZ095-097-098-100-101-181800-
SOUTHERN COAST
  
CITY           SKY/WX    TMP DP  RH WIND       PRES   REMARKS
BEAUFORT       FAIR      88  80  77 SW22      30.01S HX 104           
CEDAR ISLAND   NOT AVBL                                               
JACKSONVILLE   FAIR      93  72  50 SW12      29.98F HX 101           
PINEY ISLAND   FAIR      90  76  63 SW20G26   29.99S HX 101           
WILMINGTON     FAIR      94  73  50 W16G22    30.00S HX 103           


$$


SKY/WX - Weather  TMP - Temperature  DP - Dew Point  RH - Relative Humidity
WIND - Wind Direction/Speed PRES - Barometric Pressure VSB - Visibility
WCI - Wind Chill Index E13G22 Wind - East Wind 13 mph/Gusts of 22 mph